| time (UTC) | temp C | wind direction | speed KPH | gust KPH | rain 1hr cm | rain 24hr cm | rain mn cm | humidity % | barometer mb |
| 20260503220051 | 8 | 248 | 6.4 | 20.9 | 0.00 | 0.00 | 0.00 | 39 | 1018.0 |
| 20260503214554 | 9 | 246 | 8.0 | 24.1 | 0.00 | 0.00 | 0.00 | 37 | 1017.9 |
| 20260503213117 | 9 | 217 | 4.8 | 22.5 | 0.00 | 0.00 | 0.00 | 40 | 1018.0 |
| 20260503211613 | 10 | 257 | 8.0 | 24.1 | 0.00 | 0.00 | 0.00 | 36 | 1018.0 |
| 20260503210050 | 10 | 233 | 8.0 | 17.7 | 0.00 | 0.00 | 0.00 | 38 | 1018.1 |
| 20260503204601 | 10 | 215 | 11.3 | 17.7 | 0.00 | 0.00 | 0.00 | 36 | 1018.1 |
| 20260503203057 | 10 | 194 | 6.4 | 16.1 | 0.00 | 0.00 | 0.00 | 36 | 1018.1 |
| 20260503201559 | 10 | 271 | 3.2 | 20.9 | 0.00 | 0.00 | 0.00 | 38 | 1018.3 |
| 20260503200047 | 10 | 254 | 8.0 | 20.9 | 0.00 | 0.00 | 0.00 | 38 | 1018.3 |
| 20260503194549 | 9 | 265 | 11.3 | 25.7 | 0.00 | 0.00 | 0.00 | 40 | 1018.5 |
| 20260503193049 | 9 | 286 | 8.0 | 19.3 | 0.00 | 0.00 | 0.00 | 38 | 1018.8 |
| 20260503191600 | 9 | 268 | 6.4 | 20.9 | 0.00 | 0.00 | 0.00 | 36 | 1018.8 |
| 20260503190047 | 9 | 232 | 6.4 | 16.1 | 0.00 | 0.00 | 0.00 | 40 | 1018.8 |
| 20260503184611 | 8 | 296 | 6.4 | 22.5 | 0.00 | 0.00 | 0.00 | 41 | 1018.8 |
| 20260503183103 | 9 | 242 | 8.0 | 22.5 | 0.00 | 0.00 | 0.00 | 40 | 1019.2 |
| 20260503181553 | 8 | 240 | 6.4 | 20.9 | 0.00 | 0.00 | 0.00 | 48 | 1019.3 |
| 20260503180054 | 7 | 0 | 4.8 | 17.7 | 0.00 | 0.00 | 0.00 | 43 | 1019.2 |
| 20260503174608 | 7 | 264 | 11.3 | 24.1 | 0.00 | 0.00 | 0.00 | 45 | 1019.3 |
| 20260503173114 | 7 | 236 | 6.4 | 20.9 | 0.00 | 0.00 | 0.00 | 43 | 1019.3 |
| 20260503171552 | 6 | 273 | 3.2 | 32.2 | 0.00 | 0.00 | 0.00 | 49 | 1019.4 |
| 20260503100105 | -3 | 348 | 3.2 | 22.5 | 0.00 | 0.00 | 0.00 | 88 | 1016.5 |
| 20260503081557 | -3 | 186 | 1.6 | 14.5 | 0.00 | 0.00 | 0.00 | 86 | 1015.9 |
| 20260503071607 | -2 | 274 | 6.4 | 19.3 | 0.00 | 0.00 | 0.00 | 85 | 1015.3 |
| 20260503070103 | -2 | 281 | 6.4 | 24.1 | 0.00 | 0.00 | 0.00 | 85 | 1015.3 |
| 20260503054558 | -1 | 263 | 3.2 | 16.1 | 0.00 | 0.00 | 0.00 | 85 | 1015.7 |
| 20260503053046 | -1 | 256 | 3.2 | 11.3 | 0.00 | 0.00 | 0.00 | 85 | 1015.8 |
| 20260503051551 | -1 | 279 | 6.4 | 16.1 | 0.00 | 0.00 | 0.00 | 84 | 1015.8 |
| 20260503050056 | -1 | 281 | 4.8 | 11.3 | 0.00 | 0.00 | 0.00 | 84 | 1015.8 |
| 20260503044547 | -1 | 47 | 1.6 | 16.1 | 0.00 | 0.00 | 0.00 | 84 | 1015.9 |
| 20260503043048 | 0 | 269 | 1.6 | 16.1 | 0.00 | 0.00 | 0.00 | 83 | 1015.9 |
| 20260503041548 | 0 | 274 | 0.0 | 9.7 | 0.00 | 0.00 | 0.00 | 84 | 1016.0 |
| 20260503040053 | 0 | 275 | 1.6 | 4.8 | 0.00 | 0.00 | 0.00 | 84 | 1016.2 |
| 20260503034551 | 0 | 305 | 1.6 | 8.0 | 0.00 | 0.00 | 0.00 | 82 | 1016.0 |
| 20260503033057 | 0 | 259 | 0.0 | 8.0 | 0.00 | 0.00 | 0.00 | 81 | 1016.1 |
| 20260503031547 | 0 | 0 | 3.2 | 6.4 | 0.00 | 0.00 | 0.00 | 80 | 1016.1 |
| 20260503030051 | 0 | 12 | 3.2 | 14.5 | 0.00 | 0.00 | 0.00 | 79 | 1016.2 |
| 20260503024551 | 0 | 70 | 6.4 | 16.1 | 0.00 | 0.00 | 0.00 | 76 | 1016.5 |
| 20260503023050 | 0 | 264 | 1.6 | 14.5 | 0.00 | 0.00 | 0.00 | 75 | 1016.4 |
| 20260503021549 | 0 | 33 | 3.2 | 16.1 | 0.00 | 0.00 | 0.00 | 74 | 1016.4 |
| 20260503020048 | 0 | 0 | 1.6 | 6.4 | 0.00 | 0.00 | 0.00 | 75 | 1016.2 |
| 20260503014602 | 0 | 5 | 3.2 | 6.4 | 0.00 | 0.00 | 0.00 | 74 | 1016.2 |
| 20260503013050 | 0 | 259 | 3.2 | 12.9 | 0.00 | 0.00 | 0.00 | 74 | 1016.2 |
| 20260503011601 | 0 | 275 | 4.8 | 14.5 | 0.00 | 0.00 | 0.00 | 74 | 1016.1 |
| 20260503010047 | 0 | 258 | 6.4 | 16.1 | 0.00 | 0.00 | 0.00 | 73 | 1016.0 |
| 20260503004548 | 1 | 252 | 8.0 | 19.3 | 0.00 | 0.00 | 0.00 | 72 | 1015.9 |
| 20260503003101 | 1 | 261 | 3.2 | 17.7 | 0.00 | 0.00 | 0.00 | 69 | 1015.9 |
| 20260503001545 | 1 | 0 | 4.8 | 14.5 | 0.00 | 0.00 | 0.00 | 67 | 1015.7 |
| 20260503000047 | 1 | 265 | 6.4 | 14.5 | 0.00 | 0.00 | 0.00 | 66 | 1015.6 |
| 20260502234607 | 2 | 274 | 6.4 | 19.3 | 0.00 | 0.00 | 0.00 | 65 | 1015.6 |
| 20260502233048 | 2 | 253 | 6.4 | 20.9 | 0.00 | 0.00 | 0.00 | 64 | 1015.4 |
| 20260502231551 | 2 | 252 | 6.4 | 16.1 | 0.00 | 0.00 | 0.00 | 64 | 1015.3 |
| 20260502230059 | 2 | 270 | 8.0 | 22.5 | 0.00 | 0.00 | 0.00 | 62 | 1015.4 |
| 20260502224556 | 2 | 259 | 6.4 | 24.1 | 0.00 | 0.00 | 0.00 | 62 | 1015.3 |
| 20260502223059 | 3 | 303 | 3.2 | 16.1 | 0.00 | 0.00 | 0.00 | 62 | 1015.3 |
| 20260502221549 | 3 | 257 | 4.8 | 16.1 | 0.00 | 0.00 | 0.00 | 60 | 1015.2 |